DW4636 Weather Reports


time (UTC)temp
C
wind
direction
speed
KPH
gust
KPH
rain 1hr
cm
rain 24hr
cm
rain mn
cm
humidity
%
barometer
mb
20210920061534 15 5 0.0 0.0 0.00 0.00 0.00 79 1018.3
20210920060045 15 5 0.0 0.0 0.00 0.00 0.00 79 1018.3
20210920054614 15 5 0.0 0.0 0.00 0.00 0.00 78 1018.3
20210920053015 15 5 0.0 0.0 0.00 0.00 0.00 78 1018.3
20210920051525 15 5 0.0 0.0 0.00 0.00 0.00 77 1018.3
20210920050014 15 5 0.0 0.0 0.00 0.00 0.00 77 1018.3
20210920044552 15 5 0.0 0.0 0.00 0.00 0.00 76 1018.2
20210920043025 16 5 0.0 0.0 0.00 0.00 0.00 76 1018.3
20210920041508 16 5 0.0 0.0 0.00 0.00 0.00 75 1018.4
20210920040006 16 5 0.0 0.0 0.00 0.00 0.00 75 1018.3
20210920034504 16 5 0.0 0.0 0.00 0.00 0.00 74 1018.3
20210920033012 16 5 0.0 0.0 0.00 0.00 0.00 74 1018.2
20210920031503 16 5 0.0 0.0 0.00 0.00 0.00 74 1018.4
20210920030011 16 5 0.0 0.0 0.00 0.00 0.00 74 1018.3
20210920024514 17 5 0.0 0.0 0.00 0.00 0.00 73 1018.2
20210920023001 17 5 0.0 0.0 0.00 0.00 0.00 72 1018.2
20210920021501 17 5 0.0 0.0 0.00 0.00 0.00 71 1018.1
20210920020001 17 5 0.0 0.0 0.00 0.00 0.00 71 1017.9
20210920014743 17 5 0.0 0.0 0.00 0.00 0.00 70 1018.0
20210920013131 18 5 0.0 0.0 0.00 0.00 0.00 70 1018.0
20210920011629 18 5 0.0 0.0 0.00 0.00 0.00 69 1017.9
20210920010224 18 5 0.0 0.0 0.00 0.00 0.00 68 1017.7
20210920004708 19 5 0.0 0.0 0.00 0.00 0.00 67 1017.6
20210920003129 20 5 0.0 0.0 0.00 0.00 0.00 65 1017.4
20210920001632 20 5 0.0 0.0 0.00 0.00 0.00 64 1017.2
20210920000107 21 5 0.0 0.0 0.00 0.00 0.00 62 1017.2
20210919234641 21 5 0.0 0.0 0.00 0.00 0.00 60 1017.2
20210919233155 22 5 0.0 0.0 0.00 0.00 0.00 58 1017.2
20210919231635 22 5 0.0 0.0 0.00 0.00 0.00 55 1017.0
20210919230107 23 5 0.0 0.0 0.00 0.00 0.00 54 1017.0
20210919224740 23 5 0.0 0.0 0.00 0.00 0.00 53 1017.0
20210919223140 23 5 0.0 0.0 0.00 0.00 0.00 52 1017.0
20210919221755 24 5 0.0 0.0 0.00 0.00 0.00 50 1017.0
20210919220321 24 5 1.6 0.0 0.00 0.00 0.00 47 1016.8
20210919214640 25 17 1.6 0.0 0.00 0.00 0.00 47 1016.8
20210919213116 25 18 3.2 0.0 0.00 0.00 0.00 44 1016.9
20210919211618 25 16 1.6 0.0 0.00 0.00 0.00 44 1017.0
20210919210134 25 18 1.6 0.0 0.00 0.00 0.00 42 1016.9
20210919204708 26 9 3.2 0.0 0.00 0.00 0.00 45 1017.0
20210919203055 26 155 3.2 0.0 0.00 0.00 0.00 40 1017.0
20210919201550 27 34 3.2 0.0 0.00 0.00 0.00 41 1017.2
20210919200109 28 11 1.6 0.0 0.00 0.00 0.00 38 1017.4
20210919194613 28 12 3.2 0.0 0.00 0.00 0.00 40 1017.4
20210919193043 28 28 3.2 0.0 0.00 0.00 0.00 37 1017.6
20210919191623 28 360 3.2 0.0 0.00 0.00 0.00 38 1017.7
20210919190110 28 15 3.2 0.0 0.00 0.00 0.00 41 1018.0
20210919184713 28 145 1.6 0.0 0.00 0.00 0.00 42 1018.1
20210919183118 28 28 3.2 0.0 0.00 0.00 0.00 39 1018.2
20210919181619 28 16 3.2 0.0 0.00 0.00 0.00 41 1018.3
20210919180104 27 340 3.2 0.0 0.00 0.00 0.00 43 1018.6
20210919174548 27 163 1.6 0.0 0.00 0.00 0.00 43 1018.7
20210919173049 27 17 3.2 0.0 0.00 0.00 0.00 46 1018.8
20210919171614 27 78 1.6 0.0 0.00 0.00 0.00 48 1018.9
20210919170130 26 26 3.2 0.0 0.00 0.00 0.00 50 1019.1
20210919164540 26 335 3.2 0.0 0.00 0.00 0.00 52 1018.9
20210919163033 26 61 3.2 0.0 0.00 0.00 0.00 55 1019.1
20210919161552 26 5 4.8 0.0 0.00 0.00 0.00 56 1019.2
20210919160112 26 21 3.2 0.0 0.00 0.00 0.00 59 1019.3
20210919154544 25 161 3.2 0.0 0.00 0.00 0.00 63 1019.3
20210919153021 25 13 3.2 0.0 0.00 0.00 0.00 64 1019.3
20210919151523 25 36 1.6 0.0 0.00 0.00 0.00 65 1019.4
20210919150024 24 355 1.6 0.0 0.00 0.00 0.00 69 1019.3
20210919144508 23 26 3.2 0.0 0.00 0.00 0.00 69 1019.4
20210919143005 22 167 1.6 0.0 0.00 0.00 0.00 72 1019.5
20210919141845 21 194 1.6 0.0 0.00 0.00 0.00 78 1019.4
20210919140101 20 5 1.6 0.0 0.00 0.00 0.00 84 1019.5
20210919134623 18 5 3.2 0.0 0.00 0.00 0.00 89 1019.2
20210919133151 18 103 1.6 0.0 0.00 0.00 0.00 92 1019.2
20210919131608 17 15 1.6 0.0 0.00 0.00 0.00 93 1019.1
20210919130110 16 24 1.6 0.0 0.00 0.00 0.00 92 1018.9
20210919124705 15 355 1.6 0.0 0.00 0.00 0.00 92 1018.9
20210919123053 15 5 0.0 0.0 0.00 0.00 0.00 92 1019.0
20210919121635 15 5 0.0 0.0 0.00 0.00 0.00 91 1019.1
20210919120118 15 5 0.0 0.0 0.00 0.00 0.00 91 1019.1
20210919114629 15 5 0.0 0.0 0.00 0.00 0.00 90 1019.0
20210919113110 15 5 0.0 0.0 0.00 0.00 0.00 90 1019.0
20210919111550 15 5 0.0 0.0 0.00 0.00 0.00 90 1018.8
20210919110051 15 5 0.0 0.0 0.00 0.00 0.00 90 1018.9
20210919104553 15 5 0.0 0.0 0.00 0.00 0.00 90 1018.7
20210919103054 15 5 0.0 0.0 0.00 0.00 0.00 90 1018.4
20210919101622 15 5 0.0 0.0 0.00 0.00 0.00 89 1018.4
20210919100036 15 5 0.0 0.0 0.00 0.00 0.00 90 1018.4
20210919094604 15 5 0.0 0.0 0.00 0.00 0.00 89 1018.2
20210919093039 15 5 0.0 0.0 0.00 0.00 0.00 89 1018.1
20210919091538 15 5 0.0 0.0 0.00 0.00 0.00 89 1017.9
20210919090034 15 5 0.0 0.0 0.00 0.00 0.00 88 1017.7
20210919084527 16 5 0.0 0.0 0.00 0.00 0.00 88 1017.6
20210919083029 16 5 0.0 0.0 0.00 0.00 0.00 88 1017.6
20210919081536 16 5 0.0 0.0 0.00 0.00 0.00 88 1017.6
20210919080023 16 5 0.0 0.0 0.00 0.00 0.00 88 1017.6
20210919074600 16 9 0.0 0.0 0.00 0.00 0.00 87 1017.7
20210919073049 16 9 0.0 0.0 0.00 0.00 0.00 87 1017.7
20210919071601 16 9 0.0 0.0 0.00 0.00 0.00 87 1017.7
20210919070017 16 9 0.0 0.0 0.00 0.00 0.00 86 1017.9
20210919064538 16 9 0.0 0.0 0.00 0.00 0.00 86 1018.0
20210919063033 17 9 0.0 0.0 0.00 0.00 0.00 86 1018.0